| time (UTC) | temp F | wind direction | speed knots | gust knots | rain 1hr in | rain 24hr in | rain mn in | humidity % | barometer mb |
| 20260903154446 | 64 | 225 | 2.6 | 5.2 | 0.00 | 0.00 | 0.00 | 79 | 1015.2 |
| 20260903153931 | 64 | 268 | 1.7 | 5.2 | 0.00 | 0.00 | 0.00 | 80 | 1015.3 |
| 20260903153417 | 64 | 177 | 1.7 | 5.2 | 0.00 | 0.00 | 0.00 | 80 | 1015.2 |
| 20260903152922 | 64 | 171 | 1.7 | 5.2 | 0.00 | 0.00 | 0.00 | 80 | 1015.2 |
| 20260903152430 | 64 | 102 | 1.7 | 5.2 | 0.00 | 0.00 | 0.00 | 81 | 1015.4 |
| 20260903151935 | 63 | 154 | 0.9 | 4.3 | 0.00 | 0.00 | 0.00 | 81 | 1015.2 |
| 20260903151421 | 63 | 256 | 1.7 | 3.5 | 0.00 | 0.00 | 0.00 | 82 | 1015.2 |
| 20260903150926 | 63 | 219 | 0.9 | 4.3 | 0.00 | 0.00 | 0.00 | 82 | 1015.3 |
| 20260903150456 | 63 | 162 | 2.6 | 5.2 | 0.00 | 0.00 | 0.00 | 82 | 1015.2 |
| 20260903145939 | 63 | 247 | 1.7 | 5.2 | 0.00 | 0.00 | 0.00 | 83 | 1015.1 |
| 20260903145427 | 63 | 116 | 0.9 | 5.2 | 0.00 | 0.00 | 0.00 | 84 | 1015.2 |
| 20260903144934 | 63 | 62 | 1.7 | 5.2 | 0.00 | 0.00 | 0.00 | 84 | 1015.1 |
| 20260903144419 | 63 | 45 | 1.7 | 3.5 | 0.00 | 0.00 | 0.00 | 84 | 1015.1 |
| 20260903143925 | 62 | 232 | 1.7 | 3.5 | 0.00 | 0.00 | 0.00 | 85 | 1015.1 |
| 20260903143428 | 62 | 142 | 1.7 | 4.3 | 0.00 | 0.00 | 0.00 | 85 | 1015.1 |
| 20260903142930 | 62 | 222 | 0.9 | 4.3 | 0.00 | 0.00 | 0.00 | 85 | 1015.1 |
| 20260903142418 | 62 | 134 | 1.7 | 4.3 | 0.00 | 0.00 | 0.00 | 85 | 1015.0 |
| 20260903141925 | 62 | 160 | 0.9 | 4.3 | 0.00 | 0.00 | 0.00 | 85 | 1014.9 |
| 20260903141434 | 62 | 242 | 1.7 | 3.5 | 0.00 | 0.00 | 0.00 | 86 | 1014.8 |
| 20260903140919 | 62 | 55 | 1.7 | 4.3 | 0.00 | 0.00 | 0.00 | 85 | 1014.9 |
| 20260903140424 | 61 | 222 | 0.9 | 4.3 | 0.00 | 0.00 | 0.00 | 85 | 1014.8 |
| 20260903135927 | 61 | 137 | 0.9 | 2.6 | 0.00 | 0.00 | 0.00 | 85 | 1014.9 |
| 20260903135431 | 61 | 12 | 0.9 | 6.1 | 0.00 | 0.00 | 0.00 | 85 | 1015.0 |
| 20260903134918 | 61 | 216 | 2.6 | 6.1 | 0.00 | 0.00 | 0.00 | 85 | 1015.0 |
| 20260903134424 | 61 | 246 | 2.6 | 7.0 | 0.00 | 0.00 | 0.00 | 85 | 1014.9 |
| 20260903133932 | 61 | 295 | 3.5 | 7.0 | 0.00 | 0.00 | 0.00 | 86 | 1014.8 |
| 20260903133417 | 61 | 232 | 3.5 | 6.1 | 0.00 | 0.00 | 0.00 | 86 | 1014.9 |
| 20260903132921 | 61 | 177 | 1.7 | 5.2 | 0.00 | 0.00 | 0.00 | 86 | 1014.8 |
| 20260903132426 | 61 | 200 | 2.6 | 7.8 | 0.00 | 0.00 | 0.00 | 86 | 1014.8 |
| 20260903131931 | 61 | 232 | 4.3 | 7.8 | 0.00 | 0.00 | 0.00 | 86 | 1014.7 |
| 20260903131439 | 61 | 205 | 3.5 | 7.8 | 0.00 | 0.00 | 0.00 | 86 | 1014.8 |
| 20260903130925 | 61 | 211 | 2.6 | 7.0 | 0.00 | 0.00 | 0.00 | 86 | 1014.8 |
| 20260903130433 | 61 | 249 | 2.6 | 5.2 | 0.00 | 0.00 | 0.00 | 86 | 1014.8 |
| 20260903125917 | 61 | 207 | 0.9 | 2.6 | 0.00 | 0.00 | 0.00 | 86 | 1014.9 |
| 20260903125424 | 61 | 67 | 0.9 | 2.6 | 0.00 | 0.00 | 0.00 | 86 | 1014.8 |
| 20260903124930 | 61 | 55 | 0.9 | 2.6 | 0.00 | 0.00 | 0.00 | 86 | 1014.7 |
| 20260903124435 | 61 | 209 | 0.9 | 2.6 | 0.00 | 0.00 | 0.00 | 85 | 1014.8 |
| 20260903123952 | 61 | 209 | 1.7 | 3.5 | 0.00 | 0.00 | 0.00 | 85 | 1014.8 |
| 20260903123417 | 61 | 189 | 1.7 | 5.2 | 0.00 | 0.00 | 0.00 | 85 | 1014.9 |
| 20260903122924 | 61 | 214 | 2.6 | 5.2 | 0.00 | 0.00 | 0.00 | 85 | 1014.8 |
| 20260903122431 | 61 | 215 | 0.9 | 3.5 | 0.00 | 0.00 | 0.00 | 85 | 1014.8 |
| 20260903121919 | 62 | 88 | 0.9 | 6.1 | 0.00 | 0.00 | 0.00 | 85 | 1014.9 |
| 20260903121446 | 62 | 212 | 1.7 | 6.1 | 0.00 | 0.00 | 0.00 | 85 | 1015.0 |
| 20260903120930 | 62 | 222 | 2.6 | 5.2 | 0.00 | 0.00 | 0.00 | 85 | 1015.1 |
| 20260903120435 | 62 | 205 | 2.6 | 5.2 | 0.00 | 0.00 | 0.00 | 85 | 1015.2 |
| 20260903115939 | 62 | 226 | 1.7 | 7.8 | 0.00 | 0.00 | 0.00 | 85 | 1015.2 |
| 20260903115455 | 62 | 223 | 3.5 | 7.8 | 0.00 | 0.00 | 0.00 | 85 | 1015.2 |
| 20260903114940 | 62 | 206 | 2.6 | 5.2 | 0.00 | 0.00 | 0.00 | 85 | 1015.2 |
| 20260903114425 | 62 | 196 | 2.6 | 5.2 | 0.00 | 0.00 | 0.00 | 85 | 1015.3 |
| 20260903113927 | 62 | 202 | 2.6 | 5.2 | 0.00 | 0.00 | 0.00 | 85 | 1015.3 |
| 20260903113432 | 62 | 222 | 3.5 | 5.2 | 0.00 | 0.00 | 0.00 | 85 | 1015.4 |
| 20260903112919 | 62 | 210 | 1.7 | 6.1 | 0.00 | 0.00 | 0.00 | 85 | 1015.4 |
| 20260903112427 | 62 | 205 | 2.6 | 5.2 | 0.00 | 0.00 | 0.00 | 85 | 1015.4 |
| 20260903111933 | 62 | 214 | 1.7 | 5.2 | 0.00 | 0.00 | 0.00 | 85 | 1015.5 |
| 20260903111421 | 62 | 151 | 2.6 | 6.1 | 0.00 | 0.00 | 0.00 | 85 | 1015.6 |
| 20260903110926 | 62 | 268 | 3.5 | 6.1 | 0.00 | 0.00 | 0.00 | 85 | 1015.6 |
| 20260903110432 | 62 | 200 | 2.6 | 7.8 | 0.00 | 0.00 | 0.00 | 85 | 1015.6 |
| 20260903105934 | 62 | 219 | 5.2 | 8.7 | 0.00 | 0.00 | 0.00 | 85 | 1015.7 |
| 20260903105420 | 62 | 226 | 4.3 | 7.8 | 0.00 | 0.00 | 0.00 | 85 | 1015.7 |
| 20260903104930 | 62 | 232 | 4.3 | 7.0 | 0.00 | 0.00 | 0.00 | 85 | 1015.8 |
| 20260903104417 | 62 | 215 | 5.2 | 7.8 | 0.00 | 0.00 | 0.00 | 85 | 1015.7 |
| 20260903103924 | 62 | 164 | 4.3 | 7.8 | 0.00 | 0.00 | 0.00 | 85 | 1015.7 |
| 20260903103429 | 62 | 177 | 4.3 | 7.8 | 0.00 | 0.00 | 0.00 | 85 | 1015.6 |
| 20260903102934 | 62 | 214 | 1.7 | 6.1 | 0.00 | 0.00 | 0.00 | 85 | 1015.7 |
| 20260903102420 | 62 | 216 | 1.7 | 6.1 | 0.00 | 0.00 | 0.00 | 85 | 1015.7 |
| 20260903101924 | 62 | 219 | 1.7 | 6.1 | 0.00 | 0.00 | 0.00 | 85 | 1015.8 |
| 20260903101431 | 62 | 202 | 4.3 | 6.1 | 0.00 | 0.00 | 0.00 | 85 | 1015.9 |
| 20260903100919 | 62 | 206 | 2.6 | 6.1 | 0.00 | 0.00 | 0.00 | 85 | 1015.8 |
| 20260903100453 | 62 | 189 | 3.5 | 6.1 | 0.00 | 0.00 | 0.00 | 85 | 1015.9 |
| 20260903095919 | 62 | 339 | 1.7 | 5.2 | 0.00 | 0.00 | 0.00 | 85 | 1015.8 |
| 20260903095425 | 62 | 212 | 3.5 | 6.1 | 0.00 | 0.00 | 0.00 | 85 | 1015.9 |
| 20260903094933 | 62 | 200 | 3.5 | 6.1 | 0.00 | 0.00 | 0.00 | 85 | 1016.0 |
| 20260903094436 | 62 | 196 | 3.5 | 6.1 | 0.00 | 0.00 | 0.00 | 85 | 1016.0 |
| 20260903093952 | 62 | 239 | 2.6 | 5.2 | 0.00 | 0.00 | 0.00 | 85 | 1016.0 |
| 20260903093417 | 62 | 177 | 2.6 | 4.3 | 0.00 | 0.00 | 0.00 | 85 | 1016.1 |
| 20260903092921 | 62 | 268 | 1.7 | 2.6 | 0.00 | 0.00 | 0.00 | 85 | 1016.1 |
| 20260903092424 | 62 | 205 | 1.7 | 2.6 | 0.00 | 0.00 | 0.00 | 85 | 1016.1 |
| 20260903091930 | 62 | 268 | 0.9 | 3.5 | 0.00 | 0.00 | 0.00 | 85 | 1016.2 |
| 20260903091436 | 62 | 192 | 0.9 | 5.2 | 0.00 | 0.00 | 0.00 | 85 | 1016.2 |
| 20260903090920 | 62 | 235 | 3.5 | 5.2 | 0.00 | 0.00 | 0.00 | 85 | 1016.3 |
| 20260903090457 | 62 | 268 | 1.7 | 5.2 | 0.00 | 0.00 | 0.00 | 85 | 1016.3 |
| 20260903085919 | 62 | 218 | 3.5 | 5.2 | 0.00 | 0.00 | 0.00 | 85 | 1016.3 |
| 20260903085428 | 62 | 217 | 2.6 | 6.1 | 0.00 | 0.00 | 0.00 | 85 | 1016.3 |
| 20260903084935 | 62 | 198 | 3.5 | 6.1 | 0.00 | 0.00 | 0.00 | 85 | 1016.3 |
| 20260903084421 | 62 | 222 | 1.7 | 6.1 | 0.00 | 0.00 | 0.00 | 85 | 1016.3 |
| 20260903083926 | 62 | 251 | 2.6 | 7.8 | 0.00 | 0.00 | 0.00 | 85 | 1016.3 |
| 20260903083457 | 62 | 203 | 2.6 | 7.8 | 0.00 | 0.00 | 0.00 | 85 | 1016.2 |
| 20260903082923 | 62 | 247 | 4.3 | 7.0 | 0.00 | 0.00 | 0.00 | 85 | 1016.3 |
| 20260903082431 | 62 | 231 | 2.6 | 4.3 | 0.00 | 0.00 | 0.00 | 85 | 1016.3 |
| 20260903081917 | 62 | 203 | 1.7 | 5.2 | 0.00 | 0.00 | 0.00 | 85 | 1016.4 |
| 20260903081421 | 62 | 226 | 2.6 | 5.2 | 0.00 | 0.00 | 0.00 | 85 | 1016.4 |
| 20260903080929 | 62 | 36 | 2.6 | 5.2 | 0.00 | 0.00 | 0.00 | 85 | 1016.3 |
| 20260903080418 | 62 | 268 | 2.6 | 5.2 | 0.00 | 0.00 | 0.00 | 85 | 1016.4 |
| 20260903075924 | 62 | 268 | 0.9 | 5.2 | 0.00 | 0.00 | 0.00 | 85 | 1016.4 |
| 20260903075428 | 62 | 268 | 1.7 | 5.2 | 0.00 | 0.00 | 0.00 | 85 | 1016.4 |
| 20260903074934 | 62 | 289 | 2.6 | 4.3 | 0.00 | 0.00 | 0.00 | 85 | 1016.4 |
| 20260903074421 | 62 | 278 | 0.9 | 4.3 | 0.00 | 0.00 | 0.00 | 85 | 1016.3 |
| 20260903073926 | 62 | 273 | 1.7 | 5.2 | 0.00 | 0.00 | 0.00 | 85 | 1016.2 |
| 20260903073434 | 62 | 233 | 1.7 | 5.2 | 0.00 | 0.00 | 0.00 | 85 | 1016.2 |
| 20260903072918 | 62 | 252 | 2.6 | 4.3 | 0.00 | 0.00 | 0.00 | 85 | 1016.3 |
| 20260903072427 | 62 | 134 | 1.7 | 6.1 | 0.00 | 0.00 | 0.00 | 85 | 1016.4 |
| 20260903071931 | 62 | 294 | 1.7 | 6.1 | 0.00 | 0.00 | 0.00 | 85 | 1016.3 |
| 20260903071417 | 62 | 217 | 3.5 | 5.2 | 0.00 | 0.00 | 0.00 | 85 | 1016.2 |
| 20260903070924 | 62 | 196 | 1.7 | 4.3 | 0.00 | 0.00 | 0.00 | 85 | 1016.3 |
| 20260903070429 | 62 | 209 | 2.6 | 6.1 | 0.00 | 0.00 | 0.00 | 84 | 1016.2 |
| 20260903065928 | 62 | 211 | 3.5 | 8.7 | 0.00 | 0.00 | 0.00 | 84 | 1016.2 |
| 20260903065434 | 62 | 230 | 4.3 | 8.7 | 0.00 | 0.00 | 0.00 | 84 | 1016.2 |
| 20260903064922 | 62 | 271 | 4.3 | 7.8 | 0.00 | 0.00 | 0.00 | 84 | 1016.2 |
| 20260903064425 | 62 | 239 | 2.6 | 6.1 | 0.00 | 0.00 | 0.00 | 84 | 1016.2 |
| 20260903063931 | 62 | 249 | 3.5 | 6.1 | 0.00 | 0.00 | 0.00 | 84 | 1016.3 |
| 20260903063437 | 62 | 263 | 3.5 | 7.8 | 0.00 | 0.00 | 0.00 | 84 | 1016.3 |
| 20260903062921 | 62 | 235 | 3.5 | 8.7 | 0.00 | 0.00 | 0.00 | 84 | 1016.4 |
| 20260903062456 | 62 | 230 | 5.2 | 8.7 | 0.00 | 0.00 | 0.00 | 84 | 1016.3 |
| 20260903061922 | 62 | 249 | 5.2 | 9.6 | 0.00 | 0.00 | 0.00 | 84 | 1016.4 |
| 20260903061431 | 62 | 258 | 6.1 | 9.6 | 0.00 | 0.00 | 0.00 | 84 | 1016.4 |
| 20260903060919 | 62 | 256 | 4.3 | 12.2 | 0.00 | 0.00 | 0.00 | 84 | 1016.4 |
| 20260903060423 | 62 | 221 | 3.5 | 12.2 | 0.00 | 0.00 | 0.00 | 84 | 1016.5 |
| 20260903055929 | 62 | 197 | 6.1 | 12.2 | 0.00 | 0.00 | 0.00 | 84 | 1016.5 |
| 20260903055434 | 62 | 273 | 4.3 | 12.2 | 0.00 | 0.00 | 0.00 | 84 | 1016.4 |
| 20260903054943 | 62 | 303 | 5.2 | 13.0 | 0.00 | 0.00 | 0.00 | 84 | 1016.5 |
| 20260903054429 | 62 | 268 | 6.1 | 13.9 | 0.00 | 0.00 | 0.00 | 84 | 1016.5 |
| 20260903053936 | 62 | 247 | 4.3 | 13.9 | 0.00 | 0.00 | 0.00 | 84 | 1016.6 |
| 20260903053422 | 62 | 273 | 4.3 | 11.3 | 0.00 | 0.00 | 0.00 | 84 | 1016.7 |
| 20260903052944 | 62 | 254 | 4.3 | 13.0 | 0.00 | 0.00 | 0.00 | 83 | 1016.6 |
| 20260903052432 | 62 | 264 | 4.3 | 13.0 | 0.00 | 0.00 | 0.00 | 83 | 1016.6 |
| 20260903051918 | 62 | 263 | 7.0 | 10.4 | 0.00 | 0.00 | 0.00 | 83 | 1016.6 |
| 20260903051423 | 62 | 270 | 4.3 | 10.4 | 0.00 | 0.00 | 0.00 | 83 | 1016.7 |
| 20260903050930 | 62 | 244 | 4.3 | 11.3 | 0.00 | 0.00 | 0.00 | 83 | 1016.7 |
| 20260903050418 | 62 | 263 | 5.2 | 11.3 | 0.00 | 0.00 | 0.00 | 83 | 1016.7 |
| 20260903045923 | 62 | 217 | 5.2 | 10.4 | 0.00 | 0.00 | 0.00 | 83 | 1016.8 |
| 20260903045428 | 62 | 194 | 2.6 | 7.8 | 0.00 | 0.00 | 0.00 | 83 | 1016.8 |
| 20260903044935 | 62 | 134 | 2.6 | 7.0 | 0.00 | 0.00 | 0.00 | 83 | 1016.7 |
| 20260903044422 | 62 | 232 | 2.6 | 7.0 | 0.00 | 0.00 | 0.00 | 83 | 1016.6 |
| 20260903043929 | 62 | 252 | 2.6 | 10.4 | 0.00 | 0.00 | 0.00 | 83 | 1016.7 |
| 20260903043435 | 62 | 205 | 5.2 | 13.0 | 0.00 | 0.00 | 0.00 | 83 | 1016.6 |
| 20260903042952 | 62 | 216 | 6.1 | 13.0 | 0.00 | 0.00 | 0.00 | 83 | 1016.5 |
| 20260903042420 | 62 | 252 | 5.2 | 13.9 | 0.00 | 0.00 | 0.00 | 83 | 1016.4 |
| 20260903041923 | 62 | 259 | 5.2 | 15.6 | 0.00 | 0.00 | 0.00 | 83 | 1016.4 |
| 20260903041457 | 62 | 237 | 7.8 | 16.5 | 0.00 | 0.00 | 0.00 | 83 | 1016.3 |
| 20260903040923 | 62 | 268 | 8.7 | 16.5 | 0.00 | 0.00 | 0.00 | 83 | 1016.4 |
| 20260903040429 | 62 | 299 | 7.8 | 16.5 | 0.00 | 0.00 | 0.00 | 83 | 1016.3 |
| 20260903035934 | 62 | 287 | 9.6 | 18.2 | 0.00 | 0.00 | 0.00 | 83 | 1016.3 |
| 20260903035440 | 63 | 268 | 10.4 | 20.9 | 0.00 | 0.00 | 0.00 | 83 | 1016.2 |
| 20260903034925 | 63 | 289 | 11.3 | 20.9 | 0.00 | 0.00 | 0.00 | 83 | 1016.1 |
| 20260903034431 | 63 | 284 | 13.0 | 20.0 | 0.00 | 0.00 | 0.00 | 83 | 1016.1 |
| 20260903033918 | 63 | 264 | 13.9 | 22.6 | 0.00 | 0.00 | 0.00 | 83 | 1016.1 |
| 20260903033428 | 63 | 222 | 12.2 | 22.6 | 0.00 | 0.00 | 0.00 | 83 | 1016.0 |
| 20260903032932 | 63 | 249 | 11.3 | 19.1 | 0.00 | 0.00 | 0.00 | 83 | 1015.9 |
| 20260903032420 | 63 | 359 | 13.0 | 22.6 | 0.00 | 0.00 | 0.00 | 83 | 1015.8 |
| 20260903031927 | 63 | 270 | 13.0 | 22.6 | 0.00 | 0.00 | 0.00 | 83 | 1015.7 |
| 20260903031432 | 63 | 261 | 13.0 | 18.2 | 0.00 | 0.00 | 0.00 | 83 | 1015.7 |
| 20260903030919 | 63 | 270 | 11.3 | 19.1 | 0.00 | 0.00 | 0.00 | 83 | 1015.8 |
| 20260903030423 | 63 | 237 | 12.2 | 19.1 | 0.00 | 0.00 | 0.00 | 83 | 1015.7 |
| 20260903025929 | 63 | 287 | 11.3 | 20.0 | 0.00 | 0.00 | 0.00 | 83 | 1015.6 |
| 20260903025434 | 63 | 273 | 11.3 | 20.0 | 0.00 | 0.00 | 0.00 | 83 | 1015.6 |
| 20260903024918 | 63 | 242 | 9.6 | 17.4 | 0.00 | 0.00 | 0.00 | 83 | 1015.6 |
| 20260903024425 | 63 | 265 | 8.7 | 18.2 | 0.00 | 0.00 | 0.00 | 82 | 1015.7 |
| 20260903023930 | 63 | 282 | 10.4 | 18.2 | 0.00 | 0.00 | 0.00 | 82 | 1015.7 |
| 20260903023437 | 63 | 270 | 8.7 | 16.5 | 0.00 | 0.00 | 0.00 | 81 | 1015.8 |
| 20260903022939 | 63 | 257 | 9.6 | 19.1 | 0.00 | 0.00 | 0.00 | 81 | 1015.8 |
| 20260903022423 | 63 | 280 | 9.6 | 15.6 | 0.00 | 0.00 | 0.00 | 81 | 1016.0 |
| 20260903021929 | 63 | 276 | 8.7 | 19.1 | 0.00 | 0.00 | 0.00 | 80 | 1015.9 |
| 20260903021435 | 64 | 271 | 10.4 | 18.2 | 0.00 | 0.00 | 0.00 | 80 | 1016.0 |
| 20260903020920 | 64 | 277 | 11.3 | 18.2 | 0.00 | 0.00 | 0.00 | 80 | 1016.0 |
| 20260903020425 | 64 | 282 | 7.8 | 20.0 | 0.00 | 0.00 | 0.00 | 80 | 1016.1 |
| 20260903015929 | 64 | 254 | 8.7 | 20.0 | 0.00 | 0.00 | 0.00 | 79 | 1016.1 |
| 20260903015433 | 64 | 292 | 7.8 | 13.9 | 0.00 | 0.00 | 0.00 | 79 | 1016.2 |
| 20260903014921 | 64 | 249 | 8.7 | 15.6 | 0.00 | 0.00 | 0.00 | 79 | 1016.2 |
| 20260903014429 | 64 | 285 | 8.7 | 16.5 | 0.00 | 0.00 | 0.00 | 78 | 1016.2 |
| 20260903013917 | 64 | 257 | 10.4 | 16.5 | 0.00 | 0.00 | 0.00 | 77 | 1016.2 |
| 20260903013423 | 65 | 254 | 7.8 | 21.7 | 0.00 | 0.00 | 0.00 | 77 | 1016.4 |
| 20260903012931 | 65 | 222 | 8.7 | 21.7 | 0.00 | 0.00 | 0.00 | 76 | 1016.2 |
| 20260903012419 | 65 | 291 | 11.3 | 19.1 | 0.00 | 0.00 | 0.00 | 76 | 1016.3 |
| 20260903011927 | 65 | 228 | 10.4 | 20.0 | 0.00 | 0.00 | 0.00 | 75 | 1016.2 |
| 20260903011430 | 66 | 256 | 9.6 | 19.1 | 0.00 | 0.00 | 0.00 | 75 | 1016.3 |
| 20260903010936 | 66 | 233 | 11.3 | 16.5 | 0.00 | 0.00 | 0.00 | 75 | 1016.3 |
| 20260903010445 | 66 | 276 | 9.6 | 18.2 | 0.00 | 0.00 | 0.00 | 75 | 1016.3 |
| 20260903005939 | 66 | 282 | 10.4 | 18.2 | 0.00 | 0.00 | 0.00 | 74 | 1016.3 |
| 20260903005451 | 66 | 257 | 11.3 | 15.6 | 0.00 | 0.00 | 0.00 | 74 | 1016.3 |
| 20260903004936 | 66 | 268 | 7.8 | 18.2 | 0.00 | 0.00 | 0.00 | 74 | 1016.3 |
| 20260903004421 | 66 | 280 | 13.0 | 18.2 | 0.00 | 0.00 | 0.00 | 74 | 1016.3 |
| 20260903003927 | 66 | 281 | 10.4 | 20.9 | 0.00 | 0.00 | 0.00 | 73 | 1016.3 |
| 20260903003433 | 66 | 316 | 10.4 | 20.9 | 0.00 | 0.00 | 0.00 | 73 | 1016.4 |
| 20260903002918 | 66 | 278 | 11.3 | 20.0 | 0.00 | 0.00 | 0.00 | 74 | 1016.4 |
| 20260903002426 | 66 | 288 | 13.0 | 19.1 | 0.00 | 0.00 | 0.00 | 73 | 1016.5 |
| 20260903001929 | 66 | 249 | 11.3 | 20.0 | 0.00 | 0.00 | 0.00 | 73 | 1016.6 |
| 20260903001435 | 66 | 264 | 7.8 | 20.0 | 0.00 | 0.00 | 0.00 | 73 | 1016.6 |
| 20260903000922 | 66 | 263 | 11.3 | 19.1 | 0.00 | 0.00 | 0.00 | 73 | 1016.5 |
| 20260903000432 | 66 | 273 | 13.0 | 19.1 | 0.00 | 0.00 | 0.00 | 73 | 1016.6 |
| 20260902235936 | 67 | 280 | 9.6 | 18.2 | 0.00 | 0.00 | 0.00 | 73 | 1016.7 |
| 20260902235453 | 67 | 310 | 9.6 | 19.1 | 0.00 | 0.00 | 0.00 | 73 | 1016.7 |
| 20260902234939 | 67 | 225 | 10.4 | 19.1 | 0.00 | 0.00 | 0.00 | 72 | 1016.8 |
| 20260902234442 | 67 | 270 | 7.0 | 16.5 | 0.00 | 0.00 | 0.00 | 72 | 1016.8 |
| 20260902233926 | 67 | 275 | 8.7 | 15.6 | 0.00 | 0.00 | 0.00 | 72 | 1016.8 |
| 20260902233434 | 68 | 268 | 8.7 | 16.5 | 0.00 | 0.00 | 0.00 | 71 | 1016.7 |
| 20260902232948 | 67 | 258 | 8.7 | 16.5 | 0.00 | 0.00 | 0.00 | 71 | 1016.7 |
| 20260902232434 | 67 | 248 | 9.6 | 15.6 | 0.00 | 0.00 | 0.00 | 71 | 1016.7 |
| 20260902231941 | 67 | 310 | 8.7 | 16.5 | 0.00 | 0.00 | 0.00 | 72 | 1016.8 |
| 20260902231445 | 67 | 239 | 8.7 | 20.0 | 0.00 | 0.00 | 0.00 | 72 | 1016.9 |
| 20260902230932 | 68 | 268 | 11.3 | 20.0 | 0.00 | 0.00 | 0.00 | 71 | 1016.9 |
| 20260902230436 | 68 | 275 | 7.8 | 19.1 | 0.00 | 0.00 | 0.00 | 72 | 1016.9 |
| 20260902225928 | 67 | 280 | 10.4 | 19.1 | 0.00 | 0.00 | 0.00 | 72 | 1017.0 |
| 20260902225434 | 68 | 280 | 7.0 | 16.5 | 0.00 | 0.00 | 0.00 | 72 | 1017.1 |
| 20260902224938 | 68 | 289 | 7.0 | 16.5 | 0.00 | 0.00 | 0.00 | 72 | 1017.1 |
| 20260902224451 | 68 | 258 | 7.8 | 14.8 | 0.00 | 0.00 | 0.00 | 71 | 1017.2 |
| 20260902223939 | 68 | 273 | 9.6 | 14.8 | 0.00 | 0.00 | 0.00 | 71 | 1017.3 |
| 20260902223423 | 69 | 259 | 6.1 | 13.9 | 0.00 | 0.00 | 0.00 | 71 | 1017.2 |
| 20260902222955 | 69 | 258 | 6.1 | 13.9 | 0.00 | 0.00 | 0.00 | 71 | 1017.2 |
| 20260902222422 | 69 | 233 | 4.3 | 13.9 | 0.00 | 0.00 | 0.00 | 71 | 1017.3 |
| 20260902221927 | 69 | 256 | 7.0 | 13.9 | 0.00 | 0.00 | 0.00 | 71 | 1017.3 |
| 20260902221417 | 69 | 282 | 5.2 | 12.2 | 0.00 | 0.00 | 0.00 | 72 | 1017.2 |
| 20260902220918 | 68 | 249 | 5.2 | 13.9 | 0.00 | 0.00 | 0.00 | 72 | 1017.3 |
| 20260902220453 | 68 | 303 | 8.7 | 15.6 | 0.00 | 0.00 | 0.00 | 72 | 1017.3 |
| 20260902215925 | 68 | 256 | 6.1 | 17.4 | 0.00 | 0.00 | 0.00 | 72 | 1017.3 |
| 20260902215428 | 68 | 270 | 8.7 | 17.4 | 0.00 | 0.00 | 0.00 | 72 | 1017.3 |
| 20260902214934 | 68 | 301 | 9.6 | 15.6 | 0.00 | 0.00 | 0.00 | 71 | 1017.4 |
| 20260902214423 | 68 | 226 | 9.6 | 15.6 | 0.00 | 0.00 | 0.00 | 72 | 1017.3 |
| 20260902213958 | 69 | 302 | 6.1 | 13.9 | 0.00 | 0.00 | 0.00 | 71 | 1017.4 |
| 20260902213418 | 68 | 254 | 7.0 | 18.2 | 0.00 | 0.00 | 0.00 | 72 | 1017.5 |
| 20260902212922 | 68 | 251 | 8.7 | 18.2 | 0.00 | 0.00 | 0.00 | 72 | 1017.5 |
| 20260902212427 | 68 | 232 | 7.8 | 15.6 | 0.00 | 0.00 | 0.00 | 73 | 1017.5 |
| 20260902211934 | 68 | 271 | 10.4 | 15.6 | 0.00 | 0.00 | 0.00 | 71 | 1017.4 |
| 20260902211439 | 68 | 296 | 4.3 | 14.8 | 0.00 | 0.00 | 0.00 | 73 | 1017.5 |
| 20260902210928 | 68 | 289 | 6.1 | 17.4 | 0.00 | 0.00 | 0.00 | 73 | 1017.5 |
| 20260902210436 | 68 | 268 | 8.7 | 17.4 | 0.00 | 0.00 | 0.00 | 73 | 1017.6 |
| 20260902205944 | 68 | 256 | 7.8 | 13.9 | 0.00 | 0.00 | 0.00 | 73 | 1017.5 |
| 20260902205432 | 68 | 284 | 6.1 | 13.9 | 0.00 | 0.00 | 0.00 | 73 | 1017.5 |
| 20260902204920 | 68 | 220 | 6.1 | 11.3 | 0.00 | 0.00 | 0.00 | 73 | 1017.6 |
| 20260902204445 | 68 | 242 | 4.3 | 12.2 | 0.00 | 0.00 | 0.00 | 74 | 1017.5 |
| 20260902203928 | 68 | 261 | 4.3 | 12.2 | 0.00 | 0.00 | 0.00 | 74 | 1017.6 |
| 20260902203435 | 67 | 245 | 6.1 | 13.0 | 0.00 | 0.00 | 0.00 | 75 | 1017.6 |
| 20260902202922 | 67 | 327 | 7.0 | 13.9 | 0.00 | 0.00 | 0.00 | 75 | 1017.6 |
| 20260902202424 | 67 | 212 | 4.3 | 13.9 | 0.00 | 0.00 | 0.00 | 75 | 1017.7 |
| 20260902201928 | 68 | 239 | 7.0 | 13.0 | 0.00 | 0.00 | 0.00 | 75 | 1017.8 |
| 20260902201436 | 68 | 209 | 6.1 | 13.0 | 0.00 | 0.00 | 0.00 | 75 | 1017.9 |
| 20260902200923 | 68 | 230 | 6.1 | 13.9 | 0.00 | 0.00 | 0.00 | 75 | 1017.9 |
| 20260902200428 | 67 | 229 | 7.8 | 13.9 | 0.00 | 0.00 | 0.00 | 75 | 1017.9 |
| 20260902195932 | 67 | 289 | 6.1 | 10.4 | 0.00 | 0.00 | 0.00 | 76 | 1018.0 |
| 20260902195421 | 67 | 286 | 4.3 | 9.6 | 0.00 | 0.00 | 0.00 | 76 | 1018.1 |
| 20260902194943 | 67 | 264 | 5.2 | 10.4 | 0.00 | 0.00 | 0.00 | 76 | 1018.2 |
| 20260902194428 | 67 | 340 | 4.3 | 13.9 | 0.00 | 0.00 | 0.00 | 76 | 1018.2 |
| 20260902193935 | 67 | 251 | 4.3 | 9.6 | 0.00 | 0.00 | 0.00 | 77 | 1018.3 |
| 20260902193450 | 67 | 195 | 5.2 | 12.2 | 0.00 | 0.00 | 0.00 | 78 | 1018.2 |
| 20260902192934 | 66 | 216 | 6.1 | 13.0 | 0.00 | 0.00 | 0.00 | 79 | 1018.2 |
| 20260902192421 | 66 | 221 | 7.0 | 12.2 | 0.00 | 0.00 | 0.00 | 79 | 1018.3 |
| 20260902191928 | 66 | 209 | 5.2 | 11.3 | 0.00 | 0.00 | 0.00 | 81 | 1018.3 |
| 20260902191432 | 65 | 230 | 5.2 | 14.8 | 0.00 | 0.00 | 0.00 | 81 | 1018.3 |
| 20260902190950 | 65 | 302 | 7.0 | 14.8 | 0.00 | 0.00 | 0.00 | 82 | 1018.5 |
| 20260902190435 | 65 | 242 | 4.3 | 13.0 | 0.00 | 0.00 | 0.00 | 82 | 1018.4 |
| 20260902185933 | 64 | 313 | 6.1 | 13.9 | 0.00 | 0.00 | 0.00 | 81 | 1018.3 |
| 20260902185419 | 65 | 177 | 7.8 | 13.9 | 0.00 | 0.00 | 0.00 | 80 | 1018.4 |
| 20260902184926 | 66 | 217 | 8.7 | 13.9 | 0.00 | 0.00 | 0.00 | 78 | 1018.2 |
| 20260902184431 | 67 | 277 | 7.0 | 15.6 | 0.00 | 0.00 | 0.00 | 77 | 1018.3 |
| 20260902183934 | 67 | 300 | 5.2 | 15.6 | 0.00 | 0.00 | 0.00 | 77 | 1018.1 |
| 20260902183418 | 67 | 282 | 5.2 | 13.0 | 0.00 | 0.00 | 0.00 | 77 | 1018.2 |
| 20260902182920 | 66 | 217 | 7.0 | 13.0 | 0.00 | 0.00 | 0.00 | 77 | 1018.2 |
| 20260902182425 | 66 | 214 | 3.5 | 10.4 | 0.00 | 0.00 | 0.00 | 78 | 1018.3 |
| 20260902181932 | 66 | 283 | 5.2 | 10.4 | 0.00 | 0.00 | 0.00 | 78 | 1018.2 |
| 20260902181418 | 66 | 237 | 5.2 | 11.3 | 0.00 | 0.00 | 0.00 | 77 | 1018.2 |
| 20260902180923 | 66 | 333 | 7.0 | 12.2 | 0.00 | 0.00 | 0.00 | 77 | 1018.2 |
| 20260902180426 | 66 | 275 | 5.2 | 13.0 | 0.00 | 0.00 | 0.00 | 77 | 1018.1 |
| 20260902175930 | 66 | 273 | 7.8 | 13.0 | 0.00 | 0.00 | 0.00 | 77 | 1018.0 |
| 20260902175437 | 66 | 197 | 7.0 | 13.0 | 0.00 | 0.00 | 0.00 | 77 | 1018.1 |
| 20260902174949 | 66 | 247 | 7.0 | 14.8 | 0.00 | 0.00 | 0.00 | 77 | 1017.9 |
| 20260902174435 | 66 | 237 | 7.0 | 14.8 | 0.00 | 0.00 | 0.00 | 77 | 1017.9 |
| 20260902173922 | 66 | 268 | 5.2 | 10.4 | 0.00 | 0.00 | 0.00 | 77 | 1017.9 |
| 20260902173429 | 67 | 234 | 6.1 | 9.6 | 0.00 | 0.00 | 0.00 | 77 | 1017.7 |
| 20260902172926 | 67 | 234 | 4.3 | 11.3 | 0.00 | 0.00 | 0.00 | 78 | 1017.6 |
| 20260902172434 | 66 | 212 | 4.3 | 11.3 | 0.00 | 0.00 | 0.00 | 78 | 1017.5 |
| 20260902171950 | 66 | 249 | 5.2 | 11.3 | 0.00 | 0.00 | 0.00 | 78 | 1017.5 |
| 20260902171435 | 66 | 221 | 5.2 | 11.3 | 0.00 | 0.00 | 0.00 | 79 | 1017.4 |
| 20260902170921 | 66 | 235 | 3.5 | 9.6 | 0.00 | 0.00 | 0.00 | 79 | 1017.5 |
| 20260902170428 | 66 | 242 | 3.5 | 13.0 | 0.00 | 0.00 | 0.00 | 78 | 1017.5 |
| 20260902165933 | 66 | 226 | 4.3 | 13.0 | 0.00 | 0.00 | 0.00 | 78 | 1017.4 |
| 20260902165420 | 66 | 211 | 2.6 | 11.3 | 0.00 | 0.00 | 0.00 | 78 | 1017.4 |
| 20260902164920 | 66 | 238 | 4.3 | 10.4 | 0.00 | 0.00 | 0.00 | 78 | 1017.4 |
| 20260902164426 | 66 | 247 | 3.5 | 8.7 | 0.00 | 0.00 | 0.00 | 78 | 1017.3 |
| 20260902163934 | 66 | 213 | 5.2 | 8.7 | 0.00 | 0.00 | 0.00 | 77 | 1017.3 |
| 20260902163419 | 66 | 227 | 4.3 | 8.7 | 0.00 | 0.00 | 0.00 | 77 | 1017.2 |
| 20260902162927 | 66 | 234 | 1.7 | 7.8 | 0.00 | 0.00 | 0.00 | 77 | 1017.3 |
| 20260902162432 | 66 | 208 | 2.6 | 7.0 | 0.00 | 0.00 | 0.00 | 77 | 1017.3 |
| 20260902161934 | 66 | 268 | 1.7 | 4.3 | 0.00 | 0.00 | 0.00 | 77 | 1017.3 |
| 20260902161436 | 66 | 258 | 1.7 | 5.2 | 0.00 | 0.00 | 0.00 | 77 | 1017.3 |
| 20260902160920 | 66 | 151 | 2.6 | 5.2 | 0.00 | 0.00 | 0.00 | 77 | 1017.3 |
| 20260902160423 | 65 | 107 | 1.7 | 5.2 | 0.00 | 0.00 | 0.00 | 77 | 1017.2 |
| 20260902155925 | 65 | 134 | 1.7 | 5.2 | 0.00 | 0.00 | 0.00 | 76 | 1017.2 |
| 20260902155432 | 65 | 196 | 1.7 | 5.2 | 0.00 | 0.00 | 0.00 | 76 | 1017.2 |
| 20260902154936 | 65 | 134 | 2.6 | 5.2 | 0.00 | 0.00 | 0.00 | 76 | 1017.2 |